When you browse on this site, cookies collect data to enhance your experience and personalize the content and advertising you see.
Visit our Privacy Policy to learn more. By continuing to use the site, you agree to this use of cookies and data.
  • In Hungary
  • List of Countries
  • For 7 days
  • Water Temperature
  • Weather Map
  • News
  • Weather Widgets
  • user-avatar
    Login

    Hourly Weather Boevaya Gora

    Today, 15 October, Tuesday

    Time Temperature Precipitation Wind Pressure Humidity
    00:00 +7°C° 0 mm 4 mps 751 mmHg 81%
    01:00 +7°C° 0 mm 4 mps 751 mmHg 83%
    02:00 +7°C° 0 mm 4 mps 751 mmHg 84%
    03:00 +6°C° 0 mm 4 mps 751 mmHg 86%
    04:00 +6°C° 0 mm 4 mps 751 mmHg 88%
    05:00 +7°C° 0.1 mm 4 mps 750 mmHg 86%
    06:00 +7°C° 0.1 mm 5 mps 750 mmHg 83%
    07:00 +8°C° 0.1 mm 5 mps 749 mmHg 81%
    08:00 +9°C° 0.2 mm 7 mps 749 mmHg 77%
    09:00 +10°C° 0.2 mm 8 mps 748 mmHg 74%
    10:00 +11°C° 0.2 mm 9 mps 747 mmHg 71%
    11:00 +13°C° 0 mm 10 mps 747 mmHg 68%
    12:00 +16°C° 0 mm 11 mps 746 mmHg 64%
    13:00 +18°C° 0 mm 12 mps 745 mmHg 61%
    14:00 +18°C° 0 mm 11 mps 745 mmHg 58%
    15:00 +18°C° 0 mm 10 mps 745 mmHg 55%
    16:00 +19°C° 0 mm 10 mps 744 mmHg 51%
    17:00 +18°C° 0 mm 9 mps 744 mmHg 53%
    18:00 +17°C° 0 mm 8 mps 744 mmHg 54%
    19:00 +16°C° 0 mm 7 mps 744 mmHg 56%
    20:00 +15°C° 0 mm 7 mps 744 mmHg 63%
    21:00 +15°C° 0 mm 6 mps 744 mmHg 70%
    22:00 +14°C° 0 mm 5 mps 745 mmHg 77%
    23:00 +13°C° 0 mm 6 mps 745 mmHg 79%

    Tomorrow, 16 October, Wednesday

    Time Temperature Precipitation Wind Pressure Humidity
    00:00 +11°C° 0 mm 6 mps 745 mmHg 82%
    01:00 +10°C° 0 mm 6 mps 746 mmHg 85%
    02:00 +9°C° 0 mm 5 mps 747 mmHg 86%
    03:00 +8°C° 0 mm 5 mps 747 mmHg 88%
    04:00 +7°C° 0 mm 4 mps 748 mmHg 89%
    05:00 +7°C° 0 mm 5 mps 748 mmHg 88%
    06:00 +6°C° 0 mm 5 mps 749 mmHg 87%
    07:00 +5°C° 0 mm 5 mps 749 mmHg 86%
    08:00 +5°C° 0 mm 6 mps 750 mmHg 80%
    09:00 +5°C° 0 mm 6 mps 751 mmHg 74%
    10:00 +6°C° 0 mm 7 mps 751 mmHg 68%
    11:00 +7°C° 0 mm 6 mps 752 mmHg 64%
    12:00 +7°C° 0 mm 6 mps 752 mmHg 59%
    13:00 +7°C° 0 mm 6 mps 753 mmHg 54%
    14:00 +7°C° 0 mm 6 mps 753 mmHg 54%
    15:00 +7°C° 0 mm 6 mps 753 mmHg 54%
    16:00 +7°C° 0 mm 6 mps 754 mmHg 54%
    17:00 +6°C° 0 mm 5 mps 754 mmHg 58%
    18:00 +5°C° 0 mm 4 mps 755 mmHg 63%
    19:00 +4°C° 0 mm 3 mps 756 mmHg 67%
    20:00 +3°C° 0 mm 3 mps 756 mmHg 69%
    21:00 +3°C° 0 mm 3 mps 756 mmHg 70%
    22:00 +2°C° 0 mm 3 mps 757 mmHg 72%
    23:00 +2°C° 0 mm 3 mps 757 mmHg 73%

    Day after tomorrow, 17 October, Thursday

    Time Temperature Precipitation Wind Pressure Humidity
    00:00 +2°C° 0 mm 3 mps 757 mmHg 75%
    01:00 +2°C° 0 mm 2 mps 757 mmHg 76%
    02:00 +2°C° 0 mm 2 mps 758 mmHg 78%
    03:00 +1°C° 0 mm 2 mps 758 mmHg 79%
    04:00 +1°C° 0 mm 2 mps 759 mmHg 81%
    05:00 +2°C° 0 mm 1 mps 759 mmHg 81%
    06:00 +2°C° 0 mm 1 mps 759 mmHg 82%
    07:00 +1°C° 0 mm 1 mps 759 mmHg 82%
    08:00 +3°C° 0 mm 1 mps 759 mmHg 75%
    09:00 +3°C° 0 mm 0 mps 759 mmHg 68%
    10:00 +4°C° 0 mm 0 mps 760 mmHg 61%
    11:00 +6°C° 0 mm 1 mps 759 mmHg 57%
    12:00 +7°C° 0 mm 1 mps 759 mmHg 52%
    13:00 +7°C° 0 mm 2 mps 759 mmHg 48%
    14:00 +8°C° 0 mm 2 mps 759 mmHg 47%
    15:00 +8°C° 0 mm 3 mps 758 mmHg 46%
    16:00 +8°C° 0 mm 3 mps 758 mmHg 46%
    17:00 +8°C° 0 mm 3 mps 758 mmHg 48%
    18:00 +7°C° 0 mm 2 mps 757 mmHg 50%
    19:00 +7°C° 0 mm 2 mps 757 mmHg 53%
    20:00 +5°C° 0 mm 3 mps 757 mmHg 53%
    21:00 +5°C° 0 mm 3 mps 756 mmHg 54%
    22:00 +5°C° 0 mm 3 mps 756 mmHg 54%
    23:00 +4°C° 0 mm 4 mps 756 mmHg 55%

    18 October, Friday

    Time Temperature Precipitation Wind Pressure Humidity
    00:00 +4°C° 0 mm 4 mps 755 mmHg 55%
    01:00 +4°C° 0 mm 4 mps 754 mmHg 56%
    02:00 +4°C° 0 mm 4 mps 754 mmHg 56%
    03:00 +4°C° 0 mm 4 mps 754 mmHg 56%
    04:00 +4°C° 0 mm 4 mps 753 mmHg 56%
    05:00 +4°C° 0 mm 4 mps 753 mmHg 55%
    06:00 +3°C° 0 mm 5 mps 753 mmHg 55%
    07:00 +2°C° 0 mm 5 mps 752 mmHg 55%
    08:00 +5°C° 0 mm 5 mps 752 mmHg 51%
    09:00 +5°C° 0 mm 6 mps 752 mmHg 47%
    10:00 +8°C° 0 mm 6 mps 751 mmHg 43%
    11:00 +9°C° 0 mm 6 mps 751 mmHg 40%
    12:00 +10°C° 0 mm 6 mps 751 mmHg 38%
    13:00 +13°C° 0 mm 6 mps 750 mmHg 35%
    14:00 +11°C° 0 mm 6 mps 750 mmHg 37%
    15:00 +12°C° 0 mm 5 mps 750 mmHg 40%
    16:00 +12°C° 0 mm 4 mps 750 mmHg 42%
    17:00 +11°C° 0 mm 4 mps 750 mmHg 47%
    18:00 +10°C° 0 mm 3 mps 750 mmHg 52%
    19:00 +10°C° 0 mm 2 mps 750 mmHg 57%
    20:00 +8°C° 0 mm 4 mps 750 mmHg 64%
    21:00 +7°C° 0 mm 5 mps 751 mmHg 72%
    22:00 +5°C° 0 mm 6 mps 751 mmHg 80%
    23:00 +4°C° 0 mm 6 mps 752 mmHg 74%

    19 October, Saturday

    Time Temperature Precipitation Wind Pressure Humidity
    00:00 +3°C° 0 mm 6 mps 752 mmHg 68%
    01:00 +3°C° 0 mm 6 mps 752 mmHg 63%
    02:00 +2°C° 0 mm 6 mps 753 mmHg 64%
    03:00 +2°C° 0 mm 6 mps 753 mmHg 65%
    04:00 +1°C° 0 mm 6 mps 753 mmHg 66%
    05:00 -1°C° 0 mm 6 mps 754 mmHg 68%
    06:00 -1°C° 0 mm 6 mps 754 mmHg 69%
    07:00 -1°C° 0 mm 5 mps 755 mmHg 71%
    08:00 -1°C° 0 mm 6 mps 755 mmHg 66%
    09:00 +1°C° 0 mm 6 mps 756 mmHg 62%
    10:00 +2°C° 0 mm 6 mps 757 mmHg 57%
    11:00 +3°C° 0 mm 6 mps 757 mmHg 54%
    12:00 +4°C° 0 mm 6 mps 757 mmHg 51%
    13:00 +5°C° 0 mm 6 mps 758 mmHg 49%
    14:00 +6°C° 0 mm 5 mps 758 mmHg 48%
    15:00 +6°C° 0 mm 5 mps 758 mmHg 48%
    16:00 +6°C° 0 mm 5 mps 758 mmHg 48%
    17:00 +5°C° 0 mm 5 mps 758 mmHg 51%
    18:00 +2°C° 0 mm 5 mps 759 mmHg 55%
    19:00 +1°C° 0 mm 4 mps 759 mmHg 59%
    20:00 +1°C° 0 mm 5 mps 759 mmHg 61%
    21:00 0°C° 0 mm 5 mps 760 mmHg 63%
    22:00 0°C° 0 mm 5 mps 760 mmHg 65%
    23:00 -1°C° 0 mm 5 mps 760 mmHg 67%

    20 October, Sunday

    Time Temperature Precipitation Wind Pressure Humidity
    00:00 -1°C° 0 mm 4 mps 760 mmHg 69%
    01:00 -2°C° 0 mm 4 mps 760 mmHg 71%
    02:00 -2°C° 0 mm 4 mps 760 mmHg 72%
    03:00 -2°C° 0 mm 4 mps 760 mmHg 74%
    04:00 -3°C° 0 mm 4 mps 761 mmHg 75%
    05:00 -3°C° 0 mm 4 mps 761 mmHg 76%
    06:00 -3°C° 0 mm 4 mps 761 mmHg 76%
    07:00 -3°C° 0 mm 4 mps 761 mmHg 77%
    08:00 -2°C° 0 mm 4 mps 761 mmHg 72%
    09:00 -1°C° 0 mm 4 mps 761 mmHg 66%
    10:00 0°C° 0 mm 4 mps 761 mmHg 60%
    11:00 +1°C° 0 mm 4 mps 761 mmHg 55%
    12:00 +3°C° 0 mm 4 mps 761 mmHg 50%
    13:00 +4°C° 0 mm 4 mps 761 mmHg 45%
    14:00 +5°C° 0 mm 3 mps 760 mmHg 44%
    15:00 +5°C° 0 mm 3 mps 760 mmHg 43%
    16:00 +5°C° 0 mm 3 mps 760 mmHg 43%
    17:00 +4°C° 0 mm 3 mps 760 mmHg 47%
    18:00 +3°C° 0 mm 3 mps 760 mmHg 51%
    19:00 +2°C° 0 mm 2 mps 760 mmHg 56%
    20:00 +2°C° 0 mm 2 mps 760 mmHg 57%
    21:00 +2°C° 0 mm 2 mps 760 mmHg 59%
    22:00 +1°C° 0 mm 2 mps 760 mmHg 61%
    23:00 +1°C° 0 mm 2 mps 760 mmHg 62%
    Show more